Regional Weather Roundup
Issued by NWS

Home | Current Version | Previous Version | Text Only | Print | Product List | Glossary Off
Versions: 1 2 3 4 5 6 7 8 9 10 11 12 13 14 15 16 17 18 19 20 21 22 23 24 25 26 27 28 29 30 31 32 33 34 35 36 37 38 39 40 41 42 43 44 45 46 47 48 49 50

000
ASUS43 KTOP 172308
RWRKS

WEATHER ROUNDUP FOR KANSAS
NATIONAL WEATHER SERVICE GOODLAND KS
500 PM CST TUE JAN 17 2017

NOTE:  "FAIR" INDICATES FEW OR NO CLOUDS BELOW 12,000 FEET WITH NO
SIGNIFICANT WEATHER AND/OR OBSTRUCTIONS TO VISIBILITY.

KSZ001>006-013>018-027>032-041>047-180000-
NORTHWEST KANSAS

CITY           SKY/WX    TMP DP  RH WIND       PRES   REMARKS
GOODLAND       CLEAR     45  34  65 W6        30.04S
HAYS           CLEAR     48  31  51 CALM      30.09F
HILL CITY      CLEAR     47  31  53 SW6       30.08S
RUSSELL        CLEAR     45  31  58 W5        30.08F
$$

KSZ061>065-074>080-084>089-180000-
SOUTHWEST KANSAS

CITY           SKY/WX    TMP DP  RH WIND       PRES   REMARKS
DODGE CITY     CLEAR     47  29  49 NW6       30.08F
ELKHART          N/A     49  34  56 S7          N/A
GARDEN CITY    CLEAR     47  32  56 SW7       30.06F
GREAT BEND     CLEAR     46  30  53 W5        30.10S
LIBERAL        CLEAR     52  34  50 SW5       30.08R
PRATT          CLEAR     45  28  51 N7        30.09F
$$

KSZ066>073-081>083-090>101-180000-
SOUTHEAST KANSAS

CITY           SKY/WX    TMP DP  RH WIND       PRES   REMARKS
CHANUTE        CLEAR     43  37  79 SE6       30.14R
COFFEYVILLE    CLEAR     44  36  73 S5        30.16R
HUTCHINSON     CLEAR     48  31  51 NW7       30.10F
MEDICINE LODGE   N/A     53  31  42 N6        30.09R
NEWTON         CLEAR     46  33  60 NW8       30.10F
PARSONS        CLEAR     44  36  73 SE3       30.15R
WICHITA INTL   PTCLDY    50  31  48 N8        30.10S
WICHITA JABRA  CLEAR     47  31  53 NW5       30.11R
WICHITA MCCONL CLEAR     49  29  45 CALM      30.10S
WINFIELD       CLEAR     50  30  46 NW3       30.13R
$$

KSZ007>012-019>026-033>040-048>060-102>105-180000-
NORTHEAST KANSAS

CITY           SKY/WX    TMP DP  RH WIND       PRES   REMARKS
CONCORDIA      CLEAR     40  31  70 W7        30.10S
EMPORIA        CLEAR     47  32  56 W5        30.10S
LAWRENCE       CLEAR     42  36  79 NW3       30.12F
MANHATTAN      CLEAR     44  31  60 W5        30.12R
MARYSVILLE     CLEAR     37  32  81 W6        30.12R
OLATHE IND     CLEAR     41  35  79 CALM      30.12F
OLATHE EXE     PTCLDY    39  36  89 W3        30.11F
SALINA         CLEAR     46  30  53 NW8       30.11S
TOPEKA BILLARD CLEAR     45  33  63 NW6       30.11S
TOPEKA FORBES  CLEAR     45  31  58 NW3       30.11S
$$



USA.gov is the U.S. government's official web portal to all federal, state and local government web resources and services.